Temperature
11 10 9 10 10 11 11 11 11 11 11 10 10 10 9 10 10 9 9 9 8 7 7 6 6 6 6 6 6 6 6 6 6 6 6 6 6 6 6 6 6 6 6 7
10 9 10 11 11 10 10 10 10 10 11 10 9 9 9 9 9 9 8 8 8 7 6 6 5 5 5 5 5 5 6 5 5 6 6 5 5 5 5 5 5 6 6 6
9 9 10 10 10 10 10 9 9 9 9 10 9 8 9 9 9 8 8 7 7 7 6 5 5 5 5 4 5 5 5 5 5 5 5 5 5 5 5 5 5 5 5 5
9 9 9 9 9 9 8 9 9 9 8 7 8 7 8 8 8 8 7 7 7 6 6 5 5 4 4 4 4 4 4 4 4 4 4 4 4 4 4 4 4 4 5 5
8 8 8 8 8 8 8 8 8 8 7 7 8 6 7 8 7 7 6 7 6 6 5 5 4 4 4 3 4 4 4 4 4 4 4 4 4 3 4 4 4 4 4 4
8 8 8 8 8 8 8 8 7 7 7 5 7 7 7 7 7 6 6 6 6 5 5 4 4 4 3 3 3 3 3 3 3 3 3 3 3 3 3 3 3 3 3 4
7 8 7 7 7 7 7 6 5 5 5 6 7 7 6 7 7 6 6 6 5 5 4 4 3 3 3 3 3 3 3 3 3 3 3 3 3 3 3 3 3 3 3 3
7 6 7 7 6 6 6 6 5 5 6 6 7 6 6 6 6 6 6 5 5 4 4 3 3 3 3 2 2 2 2 2 2 2 2 2 2 2 2 2 2 2 2 2
6 6 7 7 7 6 6 5 6 5 5 4 6 7 6 6 5 5 5 5 4 4 3 2 2 2 2 2 2 2 2 2 2 1 1 1 1 1 1 1 1 1 2 2
6 5 6 6 6 6 6 6 5 4 4 5 7 7 5 5 4 4 4 4 4 3 2 2 2 2 2 1 1 1 1 1 1 1 1 1 1 1 1 1 1 1 1 1
5 4 5 5 5 5 5 5 4 4 4 4 5 5 6 5 4 4 3 4 3 2 2 1 1 1 1 1 0 0 0 0 0 0 0 0 0 0 0 0 0 1 1 1
5 4 4 5 5 5 5 5 4 3 3 4 4 4 5 4 4 4 3 3 2 2 1 1 1 1 0 0 -0 -0 -0 -0 -1 -1 -0 -0 -0 -0 -0 -0 -0 0 0 1
4 3 3 4 4 4 4 4 4 3 3 3 3 4 5 4 3 3 3 2 2 1 1 1 0 -0 -0 -1 -1 -1 -1 -1 -1 -1 -1 -1 -1 -1 -1 -1 -0 -0 0 0
4 2 2 3 4 3 2 3 3 2 2 2 3 3 4 3 3 3 2 2 1 1 0 -0 -0 -1 -1 -1 -1 -2 -2 -2 -2 -2 -2 -2 -1 -1 -1 -1 -1 -1 -0 -0
2 1 1 2 3 3 2 2 2 1 2 2 3 3 3 2 2 2 2 1 0 -0 -0 -1 -1 -1 -2 -2 -2 -2 -2 -2 -2 -2 -2 -2 -2 -2 -2 -2 -1 -1 -1 -1
1 1 1 1 2 2 2 2 2 2 2 2 2 2 3 2 2 1 1 0 -0 -1 -1 -1 -2 -2 -2 -2 -3 -3 -3 -3 -3 -3 -3 -3 -2 -2 -2 -2 -2 -2 -1 -1
0 -0 0 1 1 1 1 1 1 1 1 1 1 1 2 1 1 1 0 -0 -1 -1 -2 -2 -2 -2 -3 -3 -3 -3 -3 -3 -3 -3 -3 -3 -3 -3 -2 -2 -2 -2 -2 -2
-1 -1 -0 0 0 0 2 2 1 1 1 1 0 0 1 0 0 0 -0 -1 -1 -2 -2 -2 -3 -3 -3 -3 -3 -3 -4 -4 -4 -4 -4 -3 -3 -3 -3 -3 -3 -3 -2 -2
-1 -1 -0 0 0 1 1 1 0 -0 -0 -0 -1 -1 -0 -0 -1 -1 -0 -1 -2 -2 -2 -3 -3 -3 -3 -4 -4 -4 -4 -4 -4 -4 -4 -4 -4 -4 -3 -3 -3 -3 -3 -3
-2 -2 -1 0 0 1 2 -0 0 -0 -1 -1 -1 -1 -1 -1 -2 -2 -1 -2 -2 -2 -3 -3 -3 -3 -4 -4 -4 -4 -4 -4 -4 -4 -4 -4 -4 -4 -4 -4 -4 -3 -3 -3
-2 -1 -1 -0 0 1 -0 -1 -1 -0 -0 -1 -0 -1 -1 -2 -2 -2 -2 -2 -3 -3 -3 -3 -4 -4 -4 -4 -4 -4 -4 -5 -5 -5 -5 -5 -5 -4 -4 -4 -4 -4 -4 -4
-1 -1 -1 -1 -0 0 -1 -2 -2 -1 -0 -1 -1 -1 -2 -2 -2 -3 -3 -3 -3 -3 -3 -4 -4 -4 -4 -4 -5 -5 -5 -5 -5 -5 -5 -5 -5 -5 -5 -5 -5 -5 -4 -4
-1 -1 -1 -1 -1 -0 -1 -1 -0 -1 -1 -1 -1 -2 -2 -2 -3 -3 -3 -3 -4 -4 -4 -4 -4 -4 -5 -5 -5 -5 -5 -5 -5 -5 -5 -5 -5 -5 -5 -5 -5 -5 -5 -5
-2 -1 -2 -2 -2 -0 -0 -0 -1 -1 -1 -2 -2 -2 -3 -3 -3 -4 -4 -4 -4 -4 -4 -5 -5 -5 -5 -5 -5 -5 -5 -5 -5 -5 -5 -6 -6 -6 -6 -6 -5 -5 -5 -6
-1 -2 -2 -3 -2 -1 -1 -1 -1 -2 -2 -2 -3 -3 -3 -4 -4 -4 -4 -4 -5 -5 -5 -5 -5 -5 -5 -5 -5 -5 -5 -5 -5 -5 -6 -6 -6 -6 -6 -6 -6 -6 -6 -6
-2 -3 -3 -2 -1 -2 -1 -1 -2 -2 -3 -3 -3 -3 -4 -4 -4 -5 -5 -5 -5 -5 -5 -5 -6 -6 -6 -5 -5 -6 -6 -6 -6 -6 -6 -6 -6 -6 -6 -6 -6 -6 -6 -6
Wind_Speed
1 2 2 2 4 5 6 6 7 4 1 4 7 8 6 5 4 3 3 3 3 3 4 4 4 5 5 5 5 4 4 4 3 2 2 3 2 3 3 4 5 5 5 5
1 2 2 3 3 5 5 6 6 4 2 4 7 9 6 5 4 2 2 2 3 3 3 4 4 4 4 4 4 4 3 3 3 2 2 1 2 2 2 4 4 4 4 4
1 1 3 3 4 5 5 5 5 6 5 5 6 7 5 4 4 3 2 1 2 3 3 3 3 4 4 4 4 4 3 3 3 3 2 2 2 2 2 3 3 3 4 3
1 1 2 3 3 4 5 4 6 6 5 4 3 5 4 5 6 5 3 2 1 3 3 3 3 3 3 3 3 3 3 3 3 2 2 2 2 2 3 2 3 3 4 3
1 1 3 3 3 4 2 4 6 7 6 6 5 5 4 5 5 5 3 2 2 3 3 3 3 2 2 2 2 2 2 2 3 2 2 1 2 2 2 2 2 3 2 3
1 1 2 2 3 2 3 4 5 5 3 5 6 5 3 3 4 4 4 3 3 3 3 3 2 2 2 2 2 1 2 2 2 2 2 2 2 3 3 3 3 3 2 1
3 3 2 0 2 1 2 1 1 1 3 5 2 3 4 1 3 4 5 3 3 3 3 2 1 1 1 1 1 1 2 2 2 2 2 3 2 2 2 3 3 3 2 1
2 2 3 1 1 1 2 2 1 2 3 3 2 4 2 3 4 4 3 3 2 3 2 1 1 1 0 0 1 1 2 2 2 2 2 2 2 2 2 3 3 3 2 2
2 0 2 1 2 2 1 2 2 2 4 4 5 3 1 3 4 3 2 2 2 2 2 2 2 1 1 0 1 1 2 3 3 3 3 2 2 2 3 3 3 2 2 2
2 2 2 1 1 2 2 2 1 1 2 4 4 2 2 2 1 1 1 1 1 2 2 2 2 2 1 1 1 1 2 2 3 3 3 3 3 3 3 3 3 3 3 2
2 1 1 2 3 3 2 1 1 3 3 3 4 3 1 2 2 2 1 0 1 1 1 2 2 2 2 3 2 2 2 2 3 3 3 3 3 3 3 3 3 3 2 2
1 1 3 3 0 1 1 2 2 1 4 3 4 4 2 4 3 3 2 2 2 2 1 1 2 2 2 3 3 2 2 2 2 3 4 3 3 3 2 3 3 3 2 2
0 1 2 2 1 1 2 3 2 2 2 4 5 5 1 2 2 2 2 2 2 2 2 2 2 2 2 3 3 3 3 3 3 3 3 3 2 2 3 3 3 3 2 2
1 2 4 4 2 1 4 5 4 3 4 6 7 7 6 3 3 2 2 1 2 2 2 2 2 2 2 3 3 3 3 3 3 3 3 3 3 2 3 3 3 3 2 2
1 3 4 6 6 4 6 7 7 8 8 8 8 7 7 4 3 3 2 1 2 3 3 3 3 3 3 3 3 4 4 3 3 3 3 3 3 2 2 3 3 3 3 2
0 2 2 5 5 5 9 9 9 9 9 10 11 11 6 3 2 2 2 2 2 3 3 3 3 4 4 4 4 5 5 3 3 3 3 3 3 2 2 3 3 2 3 2
2 2 2 4 3 5 8 8 8 6 6 6 9 8 4 4 3 3 3 3 3 2 3 3 4 3 3 4 4 5 5 3 3 3 3 3 3 3 3 3 3 3 2 2
3 2 2 3 2 6 5 1 3 6 6 6 5 5 3 3 4 3 2 3 3 2 3 3 4 4 4 4 4 5 4 3 3 3 3 2 3 3 3 3 2 3 2 2
2 3 2 2 4 8 4 2 1 3 6 4 5 5 3 4 5 4 2 1 2 2 3 3 3 3 3 4 4 4 3 3 2 3 3 2 2 3 3 2 3 2 2 2
1 1 2 3 4 6 3 0 1 1 4 2 2 3 3 2 4 4 3 3 3 3 3 2 2 3 3 4 4 4 3 2 3 3 3 3 2 3 3 3 3 2 2 2
2 3 5 6 6 6 2 1 2 1 5 1 1 2 2 3 4 4 5 5 4 4 3 3 3 3 4 4 4 4 3 3 3 3 3 3 3 3 3 2 2 2 2 2
5 5 5 5 6 7 2 2 3 4 2 1 2 2 2 4 4 4 5 5 5 4 4 3 3 4 3 3 3 4 3 3 2 2 3 3 3 3 2 2 2 2 1 1
5 5 3 5 6 2 3 3 3 1 2 2 2 2 3 4 5 5 5 5 5 5 4 3 3 4 4 3 3 3 3 2 2 2 2 2 3 2 2 1 1 1 1 1
3 2 3 4 6 4 4 3 2 2 3 3 3 3 4 5 5 6 6 6 5 4 4 4 4 4 4 3 3 3 2 2 2 2 2 2 2 2 2 1 1 1 1 1
3 3 3 5 6 5 3 3 3 3 3 3 4 3 3 4 6 6 6 6 5 4 4 4 4 4 5 3 3 2 1 1 2 2 2 2 2 1 1 1 1 1 2 2
4 4 5 5 4 3 5 3 2 3 3 3 4 4 4 4 5 5 5 5 4 4 4 4 4 4 4 3 3 2 1 1 1 2 2 2 1 1 1 1 2 2 2 3
Wind_Direction
213 242 234 237 258 288 296 284 281 284 288 276 263 263 246 241 231 200 180 161 131 114 101 93 78 66 60 47 38 36 31 18 23 15 6 12 359 348 354 3 6 12 11 14
225 253 310 319 307 292 289 287 287 286 269 274 268 264 245 229 203 183 173 159 134 112 101 98 90 75 63 51 35 31 28 17 10 3 352 346 332 332 348 360 358 2 7 17
227 6 341 304 301 292 280 282 293 299 303 262 272 268 220 196 181 163 167 181 141 127 121 108 92 74 65 49 29 15 17 11 360 2 10 4 357 354 359 347 342 353 5 17
322 350 314 292 293 295 280 307 303 300 301 275 229 277 230 186 190 191 189 187 153 113 107 102 88 71 65 55 35 13 10 3 3 12 20 21 360 331 316 317 326 343 0 8
290 332 294 291 305 294 301 313 290 280 275 284 245 247 254 176 201 195 173 172 136 108 100 96 93 86 73 67 49 15 2 358 359 358 350 343 334 325 328 328 332 336 344 6
257 328 348 334 325 312 319 299 273 259 253 259 232 219 259 199 203 171 157 154 114 100 89 82 79 81 79 77 57 16 351 345 345 343 335 339 336 335 337 337 331 326 317 341
222 186 138 332 309 283 309 329 330 262 229 243 202 212 241 68 91 135 153 137 106 99 89 79 69 64 64 59 39 2 347 334 338 334 327 325 320 312 313 312 313 311 311 318
242 229 157 172 310 266 255 232 217 263 275 301 252 229 212 129 88 90 112 120 108 95 85 73 50 38 23 29 25 353 332 318 314 312 309 307 309 307 306 304 295 288 292 296
308 284 66 8 336 318 261 238 293 295 284 276 243 206 149 97 84 80 80 103 115 87 63 46 29 19 346 345 352 326 322 320 315 311 311 311 322 315 310 305 300 296 300 307
324 292 189 131 273 279 288 309 324 235 276 278 265 225 210 169 155 85 49 31 44 72 49 29 15 353 350 1 337 338 325 314 318 318 313 323 316 311 313 314 311 311 309 310
312 258 226 196 218 229 203 258 258 255 259 268 288 281 35 120 141 149 197 331 11 39 31 13 352 360 4 1 358 346 331 324 320 318 316 311 306 308 308 307 306 306 306 304
319 265 259 247 264 3 261 232 184 235 271 260 275 274 46 57 71 71 44 17 31 24 14 7 353 2 0 356 352 347 335 325 314 317 314 305 304 309 307 307 309 317 309 307
328 177 283 282 229 237 279 257 247 257 269 249 256 265 350 59 51 44 25 10 28 12 355 357 357 346 346 348 347 344 337 327 324 321 313 308 306 312 315 319 320 324 315 308
324 206 218 242 271 247 258 253 232 222 237 259 251 262 276 284 307 320 344 10 356 343 334 332 335 338 348 346 345 339 331 330 329 322 312 307 307 314 319 323 320 318 314 304
102 234 250 272 286 283 261 251 232 228 236 245 267 272 273 285 302 317 334 348 335 327 320 326 335 338 340 342 342 336 323 322 322 319 318 317 319 321 323 321 319 320 318 311
117 244 293 279 267 269 271 255 238 239 245 254 272 278 280 291 313 320 317 296 293 305 313 324 331 334 332 332 330 323 316 319 324 321 323 327 326 330 330 322 320 321 315 304
189 179 257 273 306 310 271 236 221 229 228 232 252 264 301 305 303 301 299 290 286 294 312 319 321 321 322 322 318 310 307 311 315 315 318 323 329 333 327 323 326 318 309 304
175 177 221 279 314 257 248 233 205 225 244 240 253 279 305 310 325 323 304 295 301 298 305 307 310 312 317 319 315 311 307 304 306 308 308 318 321 314 318 315 311 308 303 304
201 187 218 239 264 272 264 242 189 217 270 246 250 278 308 335 325 296 295 340 312 293 290 292 296 301 312 312 309 310 304 299 302 302 304 306 306 308 307 300 298 296 298 292
110 161 210 231 256 263 265 307 54 88 278 261 231 265 287 322 301 289 339 351 333 321 312 307 307 306 305 302 305 300 292 295 297 299 303 306 304 301 292 287 289 291 288 284
173 204 220 235 250 263 247 162 95 190 260 291 261 259 251 258 263 291 326 329 319 312 312 308 302 300 295 296 299 293 289 283 294 306 308 304 296 290 285 293 297 304 302 303
191 196 203 207 230 252 172 134 200 236 295 306 298 282 267 277 293 303 309 309 312 313 312 311 304 298 296 294 293 289 284 291 307 306 301 296 294 294 301 303 305 313 318 313
206 203 205 208 223 252 183 214 238 265 289 294 295 303 293 287 290 298 302 302 303 303 300 302 297 294 295 291 288 277 284 298 305 297 294 295 298 295 293 293 302 307 299 289
227 218 231 259 262 261 240 238 250 277 281 291 293 291 287 284 291 296 296 297 299 301 303 306 303 296 295 297 293 278 280 286 288 287 292 297 297 299 305 308 301 296 291 289
234 195 228 253 272 287 249 237 259 276 278 282 290 284 274 280 286 287 292 294 297 297 299 299 295 294 295 301 296 291 275 277 282 280 281 288 286 280 284 290 284 288 274 284
206 204 214 242 253 258 277 274 277 277 280 288 297 300 295 282 281 290 292 294 296 296 295 298 298 298 302 300 295 293 276 259 260 274 280 284 293 293 298 301 305 293 289 306
Height
1492 1495 1496 1495 1494 1492 1491 1491 1490 1489 1490 1491 1491 1489 1489 1489 1490 1491 1492 1494 1496 1497 1498 1498 1498 1498 1497 1497 1497 1497 1497 1496 1496 1496 1495 1495 1495 1494 1494 1494 1494 1493 1493 1493
1494 1496 1494 1493 1493 1492 1492 1493 1491 1490 1489 1490 1489 1488 1486 1486 1488 1490 1491 1492 1494 1495 1496 1496 1497 1496 1496 1495 1495 1495 1495 1495 1495 1495 1494 1494 1494 1493 1493 1492 1492 1491 1491 1490
1494 1496 1494 1494 1494 1494 1493 1495 1494 1493 1491 1489 1490 1488 1485 1485 1487 1489 1491 1492 1492 1493 1494 1494 1495 1494 1494 1494 1494 1493 1493 1493 1493 1493 1493 1492 1492 1491 1491 1490 1489 1489 1489 1488
1496 1495 1495 1495 1495 1495 1495 1493 1493 1493 1496 1494 1491 1496 1485 1484 1486 1487 1489 1490 1491 1492 1492 1493 1493 1493 1493 1492 1492 1492 1492 1492 1492 1491 1491 1490 1490 1489 1489 1488 1488 1487 1486 1486
1497 1496 1496 1496 1496 1495 1495 1494 1494 1494 1495 1497 1491 1496 1486 1482 1484 1485 1487 1489 1490 1490 1491 1492 1492 1492 1492 1491 1491 1491 1490 1490 1490 1489 1489 1488 1488 1487 1487 1486 1485 1484 1484 1484
1497 1496 1497 1497 1497 1496 1496 1495 1494 1493 1496 1502 1489 1493 1486 1482 1481 1482 1485 1487 1488 1489 1490 1491 1491 1491 1490 1490 1489 1489 1488 1488 1488 1487 1487 1486 1486 1485 1484 1484 1483 1482 1482 1482
1496 1496 1497 1498 1498 1498 1498 1501 1504 1502 1503 1496 1483 1487 1486 1480 1478 1480 1483 1485 1487 1488 1489 1489 1489 1489 1488 1488 1487 1487 1486 1486 1485 1485 1484 1484 1483 1483 1482 1481 1480 1480 1479 1479
1496 1498 1496 1497 1498 1500 1499 1500 1507 1506 1499 1490 1485 1485 1482 1479 1479 1480 1482 1484 1486 1487 1487 1488 1487 1487 1486 1485 1485 1484 1484 1483 1483 1482 1481 1481 1481 1480 1479 1478 1478 1477 1477 1477
1498 1498 1497 1497 1497 1498 1498 1500 1498 1503 1502 1501 1487 1480 1481 1479 1480 1481 1483 1484 1485 1485 1485 1486 1485 1485 1484 1483 1482 1482 1481 1480 1480 1479 1479 1478 1478 1477 1476 1476 1475 1475 1474 1474
1500 1502 1498 1498 1499 1499 1499 1498 1502 1504 1504 1498 1482 1479 1484 1483 1482 1482 1483 1483 1483 1484 1484 1484 1483 1483 1482 1481 1480 1479 1479 1478 1477 1476 1476 1475 1475 1474 1474 1473 1472 1472 1472 1472
1500 1505 1502 1500 1500 1499 1500 1501 1501 1502 1500 1500 1495 1489 1479 1479 1480 1481 1482 1482 1483 1482 1482 1482 1482 1481 1480 1479 1478 1477 1476 1475 1474 1473 1472 1472 1471 1471 1471 1470 1470 1469 1469 1469
1500 1504 1504 1499 1496 1496 1497 1498 1502 1509 1506 1500 1499 1494 1479 1479 1479 1481 1481 1482 1481 1481 1481 1480 1480 1479 1478 1477 1475 1474 1473 1472 1471 1470 1469 1468 1468 1468 1467 1467 1467 1466 1466 1466
1502 1506 1507 1502 1503 1501 1499 1498 1499 1503 1504 1502 1499 1493 1480 1480 1480 1481 1481 1481 1480 1480 1480 1479 1478 1477 1476 1475 1473 1472 1471 1469 1468 1467 1466 1465 1465 1464 1464 1464 1463 1463 1463 1463
1501 1505 1507 1503 1498 1499 1500 1498 1499 1503 1505 1499 1491 1487 1482 1481 1480 1480 1480 1479 1479 1479 1478 1477 1476 1475 1474 1473 1471 1470 1468 1467 1465 1464 1463 1462 1462 1462 1461 1461 1460 1460 1460 1460
1502 1505 1503 1500 1497 1497 1496 1496 1496 1499 1497 1496 1487 1484 1481 1480 1479 1479 1479 1478 1478 1477 1476 1475 1474 1473 1471 1470 1469 1467 1466 1464 1463 1462 1461 1460 1459 1459 1458 1458 1457 1457 1457 1457
1502 1504 1504 1501 1496 1496 1495 1492 1492 1492 1491 1489 1486 1483 1478 1478 1478 1477 1477 1476 1476 1475 1474 1473 1472 1471 1469 1468 1466 1464 1463 1462 1460 1459 1458 1457 1457 1456 1455 1455 1455 1455 1455 1455
1502 1505 1505 1499 1497 1497 1495 1487 1487 1486 1485 1485 1484 1481 1477 1477 1476 1476 1475 1475 1474 1473 1472 1471 1469 1468 1466 1465 1463 1462 1460 1459 1458 1457 1456 1455 1454 1453 1453 1453 1452 1452 1452 1452
1502 1504 1504 1502 1501 1501 1484 1480 1479 1481 1480 1480 1479 1477 1476 1476 1475 1475 1474 1473 1472 1471 1469 1468 1467 1465 1464 1462 1461 1459 1458 1456 1455 1454 1453 1453 1452 1451 1450 1450 1450 1449 1449 1449
1499 1502 1502 1502 1499 1487 1482 1479 1480 1481 1480 1477 1477 1475 1475 1475 1474 1472 1472 1471 1470 1469 1467 1466 1464 1462 1461 1459 1458 1456 1455 1454 1453 1452 1451 1450 1449 1449 1448 1447 1447 1447 1447 1447
1499 1501 1503 1499 1497 1490 1480 1479 1477 1480 1480 1475 1474 1474 1474 1474 1475 1471 1470 1468 1467 1466 1465 1463 1461 1460 1458 1456 1455 1453 1452 1451 1450 1449 1449 1448 1447 1447 1446 1445 1445 1444 1444 1444
1500 1500 1500 1497 1493 1483 1480 1478 1479 1484 1479 1474 1473 1473 1473 1473 1473 1470 1467 1466 1464 1463 1461 1460 1458 1456 1455 1453 1452 1451 1449 1448 1448 1447 1446 1446 1445 1445 1444 1443 1443 1442 1442 1442
1493 1494 1494 1492 1491 1485 1478 1478 1479 1477 1473 1472 1472 1471 1471 1469 1468 1466 1465 1463 1461 1459 1458 1456 1455 1453 1452 1450 1449 1448 1447 1446 1446 1445 1444 1444 1443 1443 1442 1442 1441 1441 1441 1440
1486 1486 1485 1485 1482 1475 1474 1474 1473 1473 1472 1471 1470 1469 1468 1467 1465 1463 1462 1460 1458 1457 1455 1453 1452 1450 1449 1448 1447 1445 1445 1444 1443 1443 1442 1441 1441 1441 1441 1440 1439 1439 1439 1439
1481 1480 1480 1479 1474 1472 1472 1471 1471 1471 1470 1468 1468 1467 1465 1464 1462 1460 1459 1457 1455 1453 1452 1450 1449 1447 1446 1445 1444 1443 1442 1442 1441 1440 1440 1439 1439 1439 1438 1438 1438 1437 1437 1437
1477 1478 1478 1477 1472 1470 1468 1468 1468 1467 1466 1466 1465 1464 1462 1461 1459 1457 1455 1453 1452 1450 1448 1447 1446 1444 1443 1442 1441 1441 1440 1440 1439 1438 1438 1437 1437 1437 1437 1436 1436 1436 1436 1436
1473 1474 1475 1472 1468 1468 1466 1465 1465 1464 1463 1462 1461 1460 1459 1458 1456 1454 1452 1451 1449 1447 1445 1444 1443 1441 1440 1439 1439 1438 1438 1437 1437 1436 1436 1435 1435 1435 1435 1435 1435 1435 1435 1435